Location: George Washington National Forest Helicopter Landing Site
(38.6463°N, 79.0851°W)
Time: 00:04:29
(UTC-04:00)

Tiros 1 despin weight - Pass Details

Date: 21 August 2019
Orbit: 594 x 642 km, 48.2° (Epoch: 21 September)

Event Time Altitude Azimuth Distance (km) Brightness Sun altitude
Rises 05:55:41 0° 303° (WNW) 2,881 ? -8.2°
Reaches altitude 10° 05:58:04 10° 311° (NW) 1,983 ? -7.7°
Maximum altitude 06:02:25 42° 23° (NNE) 888 ? -6.9°
Drops below altitude 10° 06:06:49 10° 95° (E) 2,006 ? -6.1°
Sets 06:09:15 0° 102° (ESE) 2,918 ? -5.7°
